Battle Creek, MI

4:00 AM EST on December 07, 2019 (GMT -0500)
Kellogg

Weather History for KBTL - July, 2019

Change the Weather History Date:

Friday, July 26, 2019

  Actual Average Record
Temperature  
Mean Temperature 71 °F 71 °F  
Max Temperature 84 °F 82 °F 93 °F (1997)
Min Temperature 60 °F 59 °F 49 °F (2011)
Degree Days  
Heating Degree Days 0 0  
Month to date heating degree days 6  
Since 1 June heating degree days 63  
Since 1 July heating degree days 6  
Cooling Degree Days 6 6  
Month to date cooling degree days 168  
Year to date cooling degree days 332  
Since 1 June cooling degree days 294  
Growing Degree Days 21 (Base 50)    
Moisture  
Dew Point 60 °F    
Average Humidity 65    
Maximum Humidity 93    
Minimum Humidity 44    
Precipitation  
Precipitation 0.00 in 0.11 in 0.45 in (2012)
Month to date precipitation 2.80  
Year to date precipitation 17.51  
Sea Level Pressure  
Sea Level Pressure 30.22 in    
Wind  
Wind Speed 6 mph (SSW)    
Max Wind Speed 14 mph    
Max Gust Speed 21 mph    
Visibility 10 miles    
Events      
T = Trace of Precipitation, MM = Missing Value Source: NWS Daily Summary

Daily Weather History Graph

Daily Weather History Graph

Search for Another Location

Airport or City:

Astronomy

Jul. 26, 2019 Rise Set
Actual Time 6:27 AM EDT 9:06 PM EDT
Civil Twilight 5:55 AM EDT 9:39 PM EDT
Nautical Twilight 5:14 AM EDT 10:19 PM EDT
Astronomical Twilight 4:27 AM EDT 11:05 PM EDT
Moon 1:42 AM EDT (7/26) 3:50 PM EDT (7/26)
Length of Visible Light 15h 44m
Length of Day
14h 39m
Waning Crescent, 34% of the Moon is Illuminated
Jul 26
Waning Crescent
Jul 31
New
Aug 7
First Quarter
Aug 15
Full
Aug 23
Last Quarter

Hourly Weather History & Observations

Time (EDT) Temp. Heat Index Dew Point Humidity Pressure Visibility Wind Dir Wind Speed Gust Speed Precip Events Conditions
12:53 AM 68.0 °F - 61.0 °F 78% 30.21 in 10.0 mi South 3.5 mph - N/A   Clear
1:53 AM 64.9 °F - 61.0 °F 87% 30.22 in 10.0 mi SSE 3.5 mph - N/A   Clear
2:53 AM 63.0 °F - 60.1 °F 90% 30.21 in 10.0 mi Calm Calm - N/A   Clear
3:53 AM 63.0 °F - 60.1 °F 90% 30.21 in 10.0 mi Calm Calm - N/A   Clear
4:53 AM 63.0 °F - 60.1 °F 90% 30.20 in 10.0 mi SE 3.5 mph - N/A   Clear
5:53 AM 61.0 °F - 59.0 °F 93% 30.22 in 10.0 mi Calm Calm - N/A   Clear
6:53 AM 60.1 °F - 57.9 °F 93% 30.23 in 10.0 mi Calm Calm - N/A   Clear
7:53 AM 66.9 °F - 61.0 °F 81% 30.25 in 10.0 mi SSW 4.6 mph - N/A   Clear
8:53 AM 71.1 °F - 60.1 °F 68% 30.25 in 10.0 mi South 8.1 mph - N/A   Clear
9:53 AM 75.0 °F - 61.0 °F 62% 30.26 in 10.0 mi South 8.1 mph - N/A   Clear
10:53 AM 78.1 °F - 61.0 °F 56% 30.26 in 10.0 mi SSW 8.1 mph - N/A   Clear
11:53 AM 81.0 °F 81.3 °F 59.0 °F 47% 30.26 in 10.0 mi SW 12.7 mph - N/A   Partly Cloudy
12:53 PM 82.0 °F 82.0 °F 57.9 °F 44% 30.25 in 10.0 mi SW 13.8 mph 20.7 mph N/A   Clear
1:53 PM 82.9 °F 82.8 °F 59.0 °F 44% 30.24 in 10.0 mi SSW 13.8 mph - N/A   Partly Cloudy
2:53 PM 82.0 °F 82.1 °F 59.0 °F 45% 30.22 in 10.0 mi SSW 9.2 mph 19.6 mph N/A   Partly Cloudy
3:53 PM 82.0 °F 82.1 °F 59.0 °F 45% 30.21 in 10.0 mi South 11.5 mph - N/A   Scattered Clouds
4:53 PM 80.1 °F 80.6 °F 57.9 °F 47% 30.21 in 10.0 mi SSW 11.5 mph - N/A   Clear
5:53 PM 81.0 °F 81.6 °F 60.1 °F 49% 30.19 in 10.0 mi South 9.2 mph - N/A   Partly Cloudy
6:53 PM 81.0 °F 81.3 °F 59.0 °F 47% 30.19 in 10.0 mi South 11.5 mph - N/A   Partly Cloudy
7:53 PM 79.0 °F - 60.1 °F 52% 30.18 in 10.0 mi South 8.1 mph - N/A   Clear
8:53 PM 75.0 °F - 61.0 °F 62% 30.18 in 10.0 mi South 6.9 mph - N/A   Clear
9:53 PM 73.9 °F - 62.1 °F 66% 30.17 in 10.0 mi South 6.9 mph - N/A   Clear
10:53 PM 73.0 °F - 61.0 °F 66% 30.18 in 10.0 mi South 9.2 mph - N/A   Clear
11:53 PM 72.0 °F - 61.0 °F 68% 30.17 in 10.0 mi South 10.4 mph - N/A   Clear